Location: Newark
(7.0858°N, 171.3717°E)
Time: 02:39:17
(UTC+00:00)

Transit 4A - Pass Details

Date: 04 December 2020
Orbit: 864 x 980 km, 66.8° (Epoch: 20 January)

Event Time Altitude Azimuth Distance (km) Brightness Sun altitude
Rises 05:41:01 0° 337° (NNW) 3,593 11.0 7.3°
Reaches altitude 10° 05:43:35 10° 335° (NNW) 2,633 10.3 6.7°
Maximum altitude 05:49:41 74° 251° (WSW) 946 8.4 5.4°
Drops below altitude 10° 05:55:36 10° 166° (SSE) 2,556 10.4 4.0°
Sets 05:58:04 0° 164° (SSE) 3,481 11.0 3.4°
